Total_Precipitation_Accumulation
0.00 0.00 0.00 0.00 0.00 0.00 0.00 0.00 0.00 0.00 0.00 0.00 0.00 0.00 0.00 0.00 0.00 0.00 0.00 0.00 0.00 0.00 0.00 0.00 0.01 0.01 0.00 0.00 0.00 0.00 0.01 0.01 0.01 0.01 0.04 0.06 0.03 0.04 0.00 0.01 0.05 0.16 0.43 0.41 0.26 0.21 0.20 0.11 0.16
0.00 0.00 0.00 0.00 0.00 0.00 0.00 0.00 0.00 0.00 0.00 0.00 0.00 0.00 0.00 0.00 0.00 0.00 0.00 0.00 0.00 0.00 0.00 0.00 0.01 0.01 0.00 0.00 0.00 0.00 0.02 0.04 0.03 0.01 0.02 0.05 0.04 0.03 0.04 0.05 0.16 0.42 0.68 0.71 0.55 0.49 0.45 0.16 0.06
0.00 0.00 0.00 0.00 0.00 0.00 0.00 0.00 0.00 0.00 0.00 0.00 0.00 0.00 0.00 0.00 0.00 0.00 0.00 0.00 0.00 0.00 0.00 0.00 0.00 0.00 0.00 0.00 0.00 0.00 0.02 0.04 0.06 0.04 0.01 0.04 0.04 0.09 0.20 0.45 0.76 1.17 1.09 1.06 0.82 0.63 0.46 0.21 0.00
0.00 0.00 0.00 0.00 0.00 0.00 0.00 0.00 0.00 0.00 0.00 0.00 0.00 0.00 0.00 0.00 0.00 0.00 0.00 0.00 0.00 0.00 0.00 0.00 0.00 0.00 0.00 0.00 0.00 0.00 0.01 0.02 0.03 0.12 0.28 0.14 0.49 0.70 0.94 1.29 2.00 2.02 1.75 1.47 2.00 1.02 0.52 0.19 0.00
0.00 0.00 0.00 0.00 0.00 0.00 0.00 0.00 0.00 0.00 0.00 0.00 0.00 0.00 0.00 0.00 0.00 0.00 0.00 0.00 0.00 0.00 0.00 0.00 0.00 0.00 0.00 0.00 0.00 0.00 0.00 0.01 0.03 0.19 0.62 0.90 1.11 0.99 0.94 0.83 0.81 0.71 0.98 0.85 0.71 0.49 0.30 0.14 0.00
0.00 0.00 0.00 0.00 0.00 0.00 0.00 0.00 0.00 0.00 0.00 0.00 0.00 0.00 0.00 0.00 0.00 0.00 0.00 0.00 0.00 0.00 0.00 0.00 0.00 0.00 0.00 0.00 0.00 0.00 0.09 0.19 0.18 0.29 0.48 0.52 0.72 0.71 0.56 0.31 0.28 0.18 0.20 0.24 0.22 0.19 0.10 0.06 0.00
0.00 0.00 0.00 0.00 0.00 0.00 0.00 0.00 0.00 0.00 0.00 0.00 0.00 0.00 0.00 0.00 0.00 0.00 0.00 0.00 0.00 0.00 0.00 0.00 0.00 0.00 0.00 0.01 0.01 0.01 0.02 0.18 0.46 0.31 0.40 0.30 0.29 0.45 0.28 0.19 0.16 0.13 0.09 0.12 0.16 0.11 0.13 0.07 0.02
0.00 0.00 0.00 0.00 0.00 0.00 0.00 0.00 0.00 0.00 0.00 0.00 0.00 0.00 0.00 0.00 0.00 0.00 0.00 0.00 0.00 0.00 0.00 0.00 0.00 0.00 0.00 0.01 0.01 0.02 0.10 0.33 0.30 0.28 0.29 0.24 0.20 0.23 0.30 0.20 0.16 0.09 0.04 0.04 0.05 0.13 0.21 0.24 0.18
0.00 0.00 0.00 0.00 0.00 0.00 0.00 0.00 0.00 0.00 0.00 0.00 0.00 0.00 0.00 0.00 0.00 0.00 0.00 0.00 0.00 0.00 0.00 0.00 0.00 0.00 0.00 0.00 0.01 0.03 0.09 0.29 0.39 0.28 0.21 0.36 0.22 0.17 0.20 0.11 0.09 0.09 0.04 0.03 0.09 0.29 0.27 0.26 0.24
0.00 0.00 0.00 0.00 0.00 0.00 0.00 0.00 0.00 0.00 0.00 0.00 0.00 0.00 0.00 0.00 0.00 0.00 0.00 0.00 0.00 0.00 0.00 0.00 0.00 0.00 0.00 0.00 0.00 0.01 0.06 0.18 0.44 0.39 0.33 0.71 0.42 0.37 0.23 0.17 0.14 0.14 0.10 0.15 0.35 0.40 0.32 0.16 0.07
0.00 0.00 0.00 0.00 0.00 0.00 0.00 0.00 0.00 0.00 0.00 0.00 0.00 0.00 0.00 0.00 0.00 0.00 0.00 0.00 0.00 0.00 0.00 0.00 0.00 0.00 0.00 0.00 0.00 0.01 0.02 0.08 0.32 0.48 0.40 0.76 0.45 0.48 0.36 0.27 0.26 0.30 0.26 0.27 0.29 0.20 0.16 0.11 0.02
0.00 0.00 0.00 0.00 0.00 0.00 0.00 0.00 0.00 0.00 0.00 0.00 0.00 0.00 0.00 0.00 0.00 0.00 0.00 0.00 0.00 0.00 0.00 0.00 0.00 0.00 0.00 0.00 0.00 0.00 0.02 0.06 0.16 0.32 0.49 0.60 0.78 0.36 0.28 0.17 0.22 0.20 0.15 0.17 0.07 0.05 0.14 0.09 0.02
0.00 0.00 0.00 0.00 0.00 0.00 0.00 0.00 0.00 0.00 0.00 0.00 0.00 0.00 0.00 0.00 0.00 0.00 0.00 0.00 0.00 0.00 0.00 0.00 0.00 0.00 0.00 0.00 0.00 0.00 0.04 0.12 0.21 0.23 0.42 0.45 0.66 0.42 0.25 0.21 0.20 0.15 0.18 0.19 0.09 0.07 0.07 0.04 0.08
0.00 0.00 0.00 0.00 0.00 0.00 0.00 0.00 0.00 0.00 0.00 0.00 0.00 0.00 0.00 0.00 0.00 0.00 0.00 0.00 0.00 0.00 0.00 0.00 0.00 0.00 0.00 0.00 0.00 0.00 0.06 0.28 0.35 0.24 0.36 0.47 0.38 0.44 0.24 0.21 0.26 0.35 0.34 0.22 0.16 0.16 0.11 0.17 0.36
0.00 0.00 0.00 0.00 0.00 0.00 0.00 0.00 0.00 0.00 0.00 0.00 0.00 0.00 0.00 0.00 0.00 0.00 0.00 0.00 0.00 0.00 0.00 0.00 0.00 0.00 0.00 0.00 0.00 0.00 0.03 0.17 0.44 0.38 0.26 0.63 0.38 0.37 0.30 0.23 0.21 0.25 0.34 0.49 0.49 0.41 0.25 0.16 0.17
0.00 0.00 0.00 0.00 0.00 0.00 0.00 0.00 0.00 0.00 0.00 0.00 0.00 0.00 0.00 0.00 0.00 0.00 0.00 0.00 0.00 0.00 0.00 0.00 0.00 0.00 0.00 0.01 0.00 0.00 0.01 0.10 0.32 0.69 0.42 0.55 0.76 0.27 0.36 0.30 0.18 0.19 0.35 0.57 0.71 0.53 0.23 0.21 0.15
0.00 0.00 0.00 0.00 0.00 0.00 0.00 0.00 0.00 0.00 0.00 0.00 0.00 0.00 0.00 0.00 0.00 0.00 0.00 0.00 0.00 0.00 0.00 0.00 0.00 0.01 0.02 0.02 0.02 0.01 0.02 0.04 0.21 0.65 0.57 0.42 0.98 0.56 0.26 0.31 0.22 0.22 0.17 0.25 0.54 0.62 0.42 0.27 0.17
0.00 0.00 0.00 0.00 0.00 0.00 0.00 0.00 0.00 0.00 0.00 0.00 0.00 0.00 0.00 0.00 0.00 0.00 0.00 0.00 0.00 0.00 0.00 0.00 0.00 0.01 0.01 0.02 0.02 0.03 0.03 0.03 0.05 0.50 0.43 0.39 0.76 0.90 0.51 0.37 0.34 0.24 0.33 0.24 0.22 0.31 0.29 0.34 0.30
0.00 0.00 0.00 0.00 0.00 0.00 0.00 0.00 0.00 0.00 0.00 0.00 0.00 0.00 0.00 0.00 0.00 0.00 0.00 0.00 0.00 0.00 0.00 0.00 0.00 0.00 0.00 0.00 0.03 0.03 0.02 0.01 0.01 0.23 0.30 0.26 0.52 0.64 0.86 0.58 0.33 0.25 0.36 0.31 0.31 0.24 0.15 0.15 0.25
0.00 0.00 0.00 0.00 0.00 0.00 0.00 0.00 0.00 0.00 0.00 0.00 0.00 0.00 0.00 0.00 0.00 0.00 0.00 0.00 0.00 0.00 0.00 0.00 0.00 0.00 0.00 0.00 0.00 0.01 0.03 0.03 0.02 0.03 0.12 0.21 0.43 0.37 0.65 0.72 0.54 0.24 0.25 0.33 0.38 0.41 0.23 0.10 0.20
0.00 0.00 0.00 0.00 0.00 0.00 0.00 0.00 0.00 0.00 0.00 0.00 0.00 0.00 0.00 0.00 0.00 0.00 0.00 0.00 0.00 0.00 0.00 0.00 0.00 0.00 0.00 0.00 0.00 0.01 0.03 0.07 0.09 0.08 0.08 0.15 0.35 0.39 0.40 0.60 0.67 0.40 0.29 0.37 0.28 0.32 0.22 0.11 0.11
0.00 0.00 0.00 0.00 0.01 0.01 0.00 0.00 0.00 0.00 0.00 0.00 0.00 0.00 0.00 0.00 0.00 0.00 0.00 0.00 0.00 0.00 0.00 0.00 0.00 0.00 0.00 0.00 0.00 0.00 0.01 0.03 0.04 0.07 0.17 0.12 0.18 0.35 0.35 0.41 0.67 0.60 0.37 0.32 0.28 0.26 0.18 0.09 0.08
0.00 0.00 0.00 0.00 0.00 0.00 0.00 0.00 0.00 0.00 0.00 0.00 0.00 0.00 0.00 0.00 0.00 0.00 0.00 0.00 0.00 0.00 0.00 0.00 0.00 0.00 0.00 0.00 0.01 0.01 0.01 0.01 0.02 0.07 0.31 0.43 0.29 0.28 0.33 0.38 0.56 0.62 0.45 0.38 0.27 0.30 0.32 0.17 0.06
0.00 0.00 0.00 0.00 0.00 0.00 0.00 0.00 0.00 0.00 0.00 0.00 0.00 0.00 0.00 0.00 0.00 0.00 0.00 0.00 0.00 0.00 0.00 0.00 0.00 0.00 0.02 0.01 0.01 0.01 0.01 0.02 0.02 0.04 0.10 0.67 0.79 0.48 0.31 0.38 0.49 0.58 0.56 0.40 0.38 0.37 0.29 0.26 0.19
0.00 0.00 0.02 0.04 0.01 0.00 0.00 0.00 0.00 0.00 0.00 0.00 0.00 0.00 0.00 0.00 0.00 0.00 0.00 0.00 0.00 0.00 0.00 0.00 0.00 0.01 0.02 0.02 0.01 0.03 0.06 0.03 0.04 0.04 0.08 0.23 0.97 0.98 0.56 0.30 0.35 0.53 0.61 0.52 0.42 0.53 0.55 0.36 0.34
0.00 0.03 0.09 0.09 0.02 0.01 0.00 0.01 0.00 0.00 0.00 0.00 0.00 0.00 0.00 0.00 0.00 0.00 0.00 0.00 0.00 0.00 0.00 0.00 0.01 0.01 0.02 0.02 0.07 0.05 0.03 0.04 0.04 0.06 0.07 0.16 0.32 0.82 0.79 0.55 0.28 0.38 0.65 0.68 0.63 0.60 0.67 0.60 0.53
0.06 0.05 0.05 0.12 0.09 0.07 0.01 0.00 0.01 0.00 0.00 0.00 0.00 0.00 0.00 0.01 0.01 0.00 0.00 0.00 0.00 0.00 0.00 0.00 0.01 0.01 0.04 0.07 0.05 0.04 0.08 0.04 0.04 0.05 0.07 0.21 0.29 0.58 0.83 0.89 0.73 0.51 0.54 0.83 0.85 0.79 0.85 0.81 0.81
0.03 0.02 0.08 0.23 0.29 0.10 0.01 0.01 0.02 0.00 0.03 0.06 0.06 0.01 0.02 0.01 0.01 0.00 0.00 0.00 0.00 0.00 0.00 0.00 0.02 0.05 0.07 0.04 0.04 0.05 0.07 0.04 0.03 0.05 0.07 0.11 0.17 0.39 0.62 0.94 1.22 1.11 0.70 0.64 0.97 1.03 0.96 0.97 0.97
0.15 0.13 0.12 0.13 0.10 0.12 0.06 0.02 0.09 0.08 0.12 0.14 0.11 0.08 0.02 0.01 0.01 0.01 0.00 0.00 0.00 0.01 0.03 0.05 0.07 0.05 0.06 0.04 0.05 0.08 0.16 0.13 0.05 0.07 0.07 0.07 0.06 0.17 0.44 0.76 1.27 1.66 1.19 0.85 0.82 0.93 0.95 0.86 0.84
0.08 0.28 0.55 0.71 0.33 0.12 0.07 0.04 0.06 0.06 0.09 0.19 0.31 0.25 0.12 0.03 0.01 0.05 0.04 0.02 0.03 0.04 0.07 0.07 0.06 0.05 0.04 0.02 0.06 0.12 0.14 0.08 0.04 0.05 0.09 0.08 0.07 0.08 0.20 0.46 0.98 1.41 1.69 1.39 1.03 0.87 0.85 0.89 0.73